Regional Weather Roundup
Issued by NWS

Home | Current Version | Previous Version | Graphics & Text | Print | Product List | Glossary On
Versions: 1 2 3 4 5 6 7 8 9 10 11 12 13 14 15 16 17 18 19 20 21 22 23 24 25 26 27 28 29 30 31 32 33 34 35 36 37 38 39 40 41 42 43 44 45 46 47 48 49 50
000
ASUS43 KTOP 310608
RWRKS

WEATHER ROUNDUP FOR KANSAS
NATIONAL WEATHER SERVICE GOODLAND KS
100 AM CDT FRI JUL 31 2015

NOTE:  "FAIR" INDICATES FEW OR NO CLOUDS BELOW 12,000 FEET WITH NO
SIGNIFICANT WEATHER AND/OR OBSTRUCTIONS TO VISIBILITY.

KSZ001>006-013>018-027>032-041>047-310700-
NORTHWEST KANSAS

CITY           SKY/WX    TMP DP  RH WIND       PRES   REMARKS
GOODLAND       MOCLDY    70  64  81 S6        30.25R
6HR MIN TEMP:  70; 6HR MAX TEMP:  86; 6HR PCP:  0.01;

HAYS           PTCLDY    72  63  73 S7        30.20S
HILL CITY      CLOUDY    75  67  76 S6        30.20S
6HR MIN TEMP:  75; 6HR MAX TEMP:  89;

RUSSELL        PTCLDY    71  68  90 S9        30.18R
6HR MIN TEMP:  71; 6HR MAX TEMP:  86;

$$

KSZ061>065-074>080-084>089-310700-
SOUTHWEST KANSAS

CITY           SKY/WX    TMP DP  RH WIND       PRES   REMARKS
DODGE CITY     PTCLDY    69  67  93 S6        30.24R
6HR MIN TEMP:  69; 6HR MAX TEMP:  79;

ELKHART          N/A     71  66  84 SE8         N/A
GARDEN CITY    MOCLDY    70  68  93 S6        30.24S
6HR MIN TEMP:  70; 6HR MAX TEMP:  81;

GREAT BEND     CLEAR     72  66  83 SE6       30.19S
LIBERAL        CLOUDY    73  66  78 SE7       30.24F
PRATT          PTCLDY    72  68  88 CALM      30.22R
$$

KSZ066>073-081>083-090>101-310700-
SOUTHEAST KANSAS

CITY           SKY/WX    TMP DP  RH WIND       PRES   REMARKS
CHANUTE        PTCLDY    69  65  86 E3        30.16S
6HR MIN TEMP:  69; 6HR MAX TEMP:  82;

COFFEYVILLE    CLOUDY    77  72  84 E3        30.14R
6HR MIN TEMP:  76; 6HR MAX TEMP:  82;

HUTCHINSON     CLEAR     69  66  90 CALM      30.18S
6HR MIN TEMP:  69; 6HR MAX TEMP:  83;

MEDICINE LODGE   N/A     74  72  93 E3        30.17F
NEWTON         CLEAR     70  63  78 S3        30.20S
PARSONS        MOCLDY    73  68  84 CALM      30.15F
6HR MIN TEMP:  71; 6HR MAX TEMP:  80;

WICHITA INTL   PTCLDY    74  67  78 SE5       30.16F
6HR MIN TEMP:  74; 6HR MAX TEMP:  84;

WICHITA JABRA  CLEAR     71  68  90 CALM      30.17F
6HR MIN TEMP:  70; 6HR MAX TEMP:  82;

WICHITA MCCONL CLEAR     74  66  76 E5        30.17F
WINFIELD       CLEAR     73  69  87 NE5       30.17S
6HR MIN TEMP:  72; 6HR MAX TEMP:  83;

$$

KSZ007>012-019>026-033>040-048>060-102>105-310700-
NORTHEAST KANSAS

CITY           SKY/WX    TMP DP  RH WIND       PRES   REMARKS
CONCORDIA      MOCLDY    73  67  81 S10       30.17R
6HR MIN TEMP:  72; 6HR MAX TEMP:  84;

EMPORIA        CLEAR     67  65  93 S5        30.17S
6HR MIN TEMP:  67; 6HR MAX TEMP:  82;

LAWRENCE       CLEAR     62  61  96 CALM      30.17S
6HR MIN TEMP:  62; 6HR MAX TEMP:  84;

MANHATTAN      CLEAR     67  66  97 CALM      30.16S
6HR MIN TEMP:  67; 6HR MAX TEMP:  87;

MARYSVILLE     PTCLDY    68  63  83 S3        30.16S
OLATHE IND     CLEAR     66  61  84 CALM      30.18S
6HR MIN TEMP:  65; 6HR MAX TEMP:  84;

OLATHE EXE     CLEAR     69  60  73 CALM      30.17S
6HR MIN TEMP:  68; 6HR MAX TEMP:  82;

SALINA         CLEAR     72  67  84 SE5       30.17S
6HR MIN TEMP:  71; 6HR MAX TEMP:  87;

TOPEKA BILLARD CLEAR     68  66  93 CALM      30.17S
6HR MIN TEMP:  68; 6HR MAX TEMP:  84; 6HR PCP: TRACE;

TOPEKA FORBES  CLEAR     67  63  87 CALM      30.17S
6HR MIN TEMP:  67; 6HR MAX TEMP:  86;

$$


USA.gov is the U.S. government's official web portal to all federal, state and local government web resources and services.